FW6456 Weather Reports


Display with metric or nautical units.
time (UTC)temp
F
wind
direction
speed
MPH
gust
MPH
rain 1hr
in
rain 24hr
in
rain mn
in
humidity
%
barometer
mb
20260508021950 49 39 0.0 0.0 0.00 0.00 0.00 81 3408.9
20260508021446 49 39 0.0 0.0 0.00 0.00 0.00 80 3408.9
20260508020942 49 39 0.0 0.0 0.00 0.00 0.00 79 3409.0
20260508020440 50 35 0.0 0.0 0.00 0.00 0.00 78 3408.7
20260508015937 50 34 0.0 0.0 0.00 0.00 0.00 77 3408.7
20260508015435 50 33 0.0 0.0 0.00 0.00 0.00 76 3408.8
20260508014931 51 33 0.0 0.0 0.00 0.00 0.00 75 3408.7
20260508014428 51 33 0.0 0.0 0.00 0.00 0.00 75 3408.5
20260508013924 51 33 0.0 0.0 0.00 0.00 0.00 75 3408.5
20260508013420 52 33 0.0 0.0 0.00 0.00 0.00 74 3408.5
20260508012917 52 33 0.0 0.0 0.00 0.00 0.00 73 3408.5
20260508012414 52 33 0.0 0.0 0.00 0.00 0.00 72 3408.5
20260508011912 53 33 0.0 0.0 0.00 0.00 0.00 71 3408.5
20260508011410 53 33 0.0 0.0 0.00 0.00 0.00 71 3408.3
20260508010907 54 33 0.0 0.0 0.00 0.00 0.00 68 3408.1
20260508010404 54 33 0.0 0.0 0.00 0.00 0.00 67 3408.4
20260508005901 55 33 0.0 0.0 0.00 0.00 0.00 68 3408.2
20260508005357 55 32 0.0 0.0 0.00 0.00 0.00 67 3408.1
20260508004854 56 32 0.0 0.0 0.00 0.00 0.00 65 3408.2
20260508004350 56 33 0.0 0.0 0.00 0.00 0.00 63 3408.0
20260508003847 57 32 0.0 0.0 0.00 0.00 0.00 63 3407.9
20260508003344 57 32 0.0 0.0 0.00 0.00 0.00 64 3408.1
20260508002841 58 32 0.0 0.0 0.00 0.00 0.00 60 3408.1
20260508002338 58 32 0.0 0.0 0.00 0.00 0.00 57 3408.0
20260508001834 59 32 0.0 0.0 0.00 0.00 0.00 57 3407.8
20260508001330 60 32 0.0 0.0 0.00 0.00 0.00 54 3407.9
20260508000826 60 32 0.0 0.0 0.00 0.00 0.00 51 3407.8
20260508000323 61 32 0.0 0.0 0.00 0.00 0.00 51 3407.7
20260507235820 61 32 0.0 0.0 0.00 0.00 0.00 50 3407.9
20260507235317 62 32 0.0 0.0 0.00 0.00 0.00 48 3407.7
20260507234814 62 52 0.0 0.0 0.00 0.00 0.00 46 3407.6
20260507234311 62 53 0.0 0.0 0.00 0.00 0.00 44 3407.5
20260507233807 63 74 1.0 2.0 0.00 0.00 0.00 43 3407.8
20260507233305 63 37 0.0 2.0 0.00 0.00 0.00 44 3407.6
20260507232803 63 70 0.0 0.0 0.00 0.00 0.00 43 3407.7
20260507232259 64 353 2.0 3.0 0.00 0.00 0.00 42 3407.7
20260507231755 64 38 0.0 2.0 0.00 0.00 0.00 42 3407.6
20260507231253 65 44 1.0 2.0 0.00 0.00 0.00 42 3407.8
20260507230749 66 41 1.0 2.0 0.00 0.00 0.00 40 3407.8
20260507230247 67 56 0.0 0.0 0.00 0.00 0.00 42 3407.8
20260507225746 66 302 2.0 3.0 0.00 0.00 0.00 40 3407.8
20260507225242 67 337 3.0 3.0 0.00 0.00 0.00 38 3407.8
20260507224738 66 26 1.0 2.0 0.00 0.00 0.00 41 3407.7
20260507224235 67 24 1.0 2.0 0.00 0.00 0.00 40 3408.0
20260507223731 67 302 1.0 2.0 0.00 0.00 0.00 39 3407.8
20260507223228 66 14 1.0 2.0 0.00 0.00 0.00 40 3407.8
20260507222725 68 326 4.0 5.0 0.00 0.00 0.00 38 3408.1
20260507222221 68 273 0.0 0.0 0.00 0.00 0.00 39 3408.1
20260507221718 67 117 0.0 0.0 0.00 0.00 0.00 39 3408.0
20260507221214 67 190 0.0 2.0 0.00 0.00 0.00 41 3407.9
20260507220711 66 216 2.0 3.0 0.00 0.00 0.00 41 3407.9
20260507220210 67 51 1.0 2.0 0.00 0.00 0.00 39 3407.8
20260507215705 67 318 4.0 8.0 0.00 0.00 0.00 38 3407.9
20260507215203 67 50 1.0 2.0 0.00 0.00 0.00 38 3407.7
20260507214700 67 52 0.0 2.0 0.00 0.00 0.00 39 3407.6
20260507214156 68 35 1.0 2.0 0.00 0.00 0.00 40 3407.6
20260507213652 68 355 2.0 3.0 0.00 0.00 0.00 40 3407.8
20260507213150 67 113 1.0 2.0 0.00 0.00 0.00 40 3407.7
20260507212646 67 29 1.0 2.0 0.00 0.00 0.00 39 3407.5
20260507212143 67 48 0.0 2.0 0.00 0.00 0.00 42 3407.8
20260507211640 65 323 0.0 2.0 0.00 0.00 0.00 42 3407.6
20260507211135 66 166 0.0 0.0 0.00 0.00 0.00 42 3407.7
20260507210633 65 65 0.0 0.0 0.00 0.00 0.00 42 3407.7
20260507210129 65 303 6.0 7.0 0.00 0.00 0.00 41 3407.8
20260507205626 65 53 0.0 0.0 0.00 0.00 0.00 44 3407.9
20260507205122 64 359 2.0 2.0 0.00 0.00 0.00 45 3407.8
20260507204619 64 163 4.0 5.0 0.00 0.00 0.00 43 3407.8
20260507204116 65 284 5.0 7.0 0.00 0.00 0.00 41 3407.7
20260507203614 65 166 0.0 2.0 0.00 0.00 0.00 43 3407.9
20260507203111 65 287 4.0 5.0 0.00 0.00 0.00 43 3408.1
20260507202607 65 110 0.0 0.0 0.00 0.00 0.00 45 3407.8
20260507202104 65 152 0.0 2.0 0.00 0.00 0.00 46 3407.8
20260507201559 65 89 1.0 3.0 0.00 0.00 0.00 43 3407.9
20260507201056 64 102 0.0 0.0 0.00 0.00 0.00 44 3408.0
20260507200551 64 302 3.0 5.0 0.00 0.00 0.00 40 3407.7
20260507200047 64 153 2.0 2.0 0.00 0.00 0.00 40 3408.0
20260507195545 64 350 2.0 3.0 0.00 0.00 0.00 42 3408.1
20260507195042 64 323 1.0 2.0 0.00 0.00 0.00 42 3408.1
20260507194538 65 357 3.0 5.0 0.00 0.00 0.00 44 3408.2
20260507194035 65 256 5.0 7.0 0.00 0.00 0.00 41 3408.2
20260507193532 65 241 3.0 3.0 0.00 0.00 0.00 40 3408.2
20260507193029 66 91 0.0 0.0 0.00 0.00 0.00 45 3408.1
20260507192525 66 313 3.0 3.0 0.00 0.00 0.00 41 3408.4
20260507192022 65 76 1.0 2.0 0.00 0.00 0.00 44 3408.3
20260507191517 65 313 7.0 8.0 0.00 0.00 0.00 41 3408.4
20260507191014 65 129 1.0 2.0 0.00 0.00 0.00 47 3408.4
20260507190512 64 58 1.0 2.0 0.00 0.00 0.00 45 3408.5
20260507190010 64 354 1.0 3.0 0.00 0.00 0.00 44 3408.4
20260507185508 64 67 0.0 0.0 0.00 0.00 0.00 44 3408.8
20260507185004 64 326 3.0 5.0 0.00 0.00 0.00 41 3408.5
20260507184503 64 340 4.0 5.0 0.00 0.00 0.00 44 3408.6
20260507184000 64 227 2.0 2.0 0.00 0.00 0.00 44 3408.4
20260507183456 64 10 4.0 5.0 0.00 0.00 0.00 46 3408.5
20260507182953 63 134 0.0 2.0 0.00 0.00 0.00 50 3408.4
20260507182449 63 88 0.0 2.0 0.00 0.00 0.00 43 3408.7
20260507181945 63 239 3.0 8.0 0.00 0.00 0.00 43 3408.7
20260507181442 64 301 9.0 15.0 0.00 0.00 0.00 43 3408.6
20260507180938 63 13 2.0 2.0 0.00 0.00 0.00 45 3408.6
20260507180435 62 293 4.0 5.0 0.00 0.00 0.00 43 3408.7
20260507175931 63 269 6.0 10.0 0.00 0.00 0.00 44 3408.9
20260507175428 64 4 5.0 7.0 0.00 0.00 0.00 42 3408.7
20260507174926 63 52 2.0 2.0 0.00 0.00 0.00 49 3408.7
20260507174423 62 216 1.0 2.0 0.00 0.00 0.00 47 3409.0
20260507173921 62 318 5.0 7.0 0.00 0.00 0.00 46 3408.9
20260507173417 62 330 2.0 3.0 0.00 0.00 0.00 45 3408.8
20260507172914 62 328 4.0 5.0 0.00 0.00 0.00 44 3409.0
20260507172411 63 100 0.0 2.0 0.00 0.00 0.00 44 3409.0
20260507171907 63 38 0.0 0.0 0.00 0.00 0.00 48 3409.0
20260507171403 63 269 3.0 3.0 0.00 0.00 0.00 46 3409.1
20260507170900 62 103 0.0 2.0 0.00 0.00 0.00 49 3409.2
20260507170357 62 110 1.0 2.0 0.00 0.00 0.00 55 3409.2
20260507165853 62 40 1.0 2.0 0.00 0.00 0.00 49 3409.3
20260507165349 62 108 0.0 0.0 0.00 0.00 0.00 48 3409.3
20260507164845 61 38 0.0 0.0 0.00 0.00 0.00 48 3409.3
20260507164342 61 136 4.0 5.0 0.00 0.00 0.00 49 3409.5
20260507163840 61 125 0.0 0.0 0.00 0.00 0.00 52 3409.5
20260507163337 61 203 3.0 5.0 0.00 0.00 0.00 53 3409.7
20260507162833 60 0 2.0 3.0 0.00 0.00 0.00 47 3409.7
20260507162329 60 241 4.0 5.0 0.00 0.00 0.00 51 3409.7
20260507161826 60 37 4.0 5.0 0.00 0.00 0.00 49 3409.8
20260507161322 60 95 1.0 2.0 0.00 0.00 0.00 52 3409.8
20260507160819 60 359 3.0 3.0 0.00 0.00 0.00 49 3409.9
20260507160315 60 19 2.0 3.0 0.00 0.00 0.00 51 3409.7
20260507155811 59 281 3.0 3.0 0.00 0.00 0.00 51 3409.7
20260507155307 59 9 2.0 3.0 0.00 0.00 0.00 48 3409.6
20260507154804 59 305 4.0 5.0 0.00 0.00 0.00 46 3409.5
20260507154302 58 278 2.0 2.0 0.00 0.00 0.00 47 3409.4
20260507153758 58 82 2.0 3.0 0.00 0.00 0.00 52 3409.7
20260507153254 59 336 2.0 3.0 0.00 0.00 0.00 52 3409.6
20260507152751 58 237 1.0 2.0 0.00 0.00 0.00 52 3409.8
20260507152248 59 272 4.0 5.0 0.00 0.00 0.00 53 3409.8
20260507151743 59 144 1.0 2.0 0.00 0.00 0.00 55 3409.7
20260507151240 58 129 0.0 0.0 0.00 0.00 0.00 59 3409.6
20260507150737 58 169 2.0 3.0 0.00 0.00 0.00 59 3409.7
20260507150234 58 326 2.0 3.0 0.00 0.00 0.00 59 3409.8
20260507145730 58 125 1.0 2.0 0.00 0.00 0.00 57 3409.6
20260507145226 57 120 0.0 0.0 0.00 0.00 0.00 61 3409.7
20260507144724 57 8 0.0 2.0 0.00 0.00 0.00 57 3409.6
20260507144221 57 70 0.0 0.0 0.00 0.00 0.00 60 3409.7
20260507143717 56 199 0.0 0.0 0.00 0.00 0.00 60 3409.8
20260507143215 56 65 1.0 2.0 0.00 0.00 0.00 57 3409.9
20260507142710 55 339 0.0 0.0 0.00 0.00 0.00 61 3409.9
20260507142207 55 355 1.0 2.0 0.00 0.00 0.00 61 3409.8
20260507141703 55 128 1.0 2.0 0.00 0.00 0.00 65 3409.7
20260507141201 55 131 0.0 0.0 0.00 0.00 0.00 64 3409.6
20260507140657 55 149 1.0 2.0 0.00 0.00 0.00 66 3409.5
20260507140154 55 141 0.0 0.0 0.00 0.00 0.00 65 3409.4
20260507135651 54 153 2.0 2.0 0.00 0.00 0.00 65 3409.6
20260507135149 54 264 3.0 3.0 0.00 0.00 0.00 65 3409.4
20260507134645 54 100 0.0 0.0 0.00 0.00 0.00 67 3409.4
20260507134141 53 135 0.0 0.0 0.00 0.00 0.00 71 3409.7
20260507133637 53 110 1.0 2.0 0.00 0.00 0.00 72 3409.5
20260507133135 53 146 0.0 0.0 0.00 0.00 0.00 71 3409.5
20260507132632 53 140 2.0 2.0 0.00 0.00 0.00 73 3409.8
20260507132128 52 50 0.0 0.0 0.00 0.00 0.00 74 3409.8
20260507131625 52 139 0.0 0.0 0.00 0.00 0.00 76 3409.7
20260507131122 51 135 1.0 2.0 0.00 0.00 0.00 77 3409.8
20260507130619 51 84 0.0 0.0 0.00 0.00 0.00 76 3409.6
20260507130117 51 100 0.0 0.0 0.00 0.00 0.00 78 3409.6
20260507125615 50 142 0.0 0.0 0.00 0.00 0.00 79 3409.6
20260507125112 50 123 0.0 0.0 0.00 0.00 0.00 80 3409.2
20260507124609 50 122 0.0 0.0 0.00 0.00 0.00 80 3409.3
20260507124107 49 116 0.0 0.0 0.00 0.00 0.00 81 3409.3
20260507123604 49 94 0.0 0.0 0.00 0.00 0.00 81 3409.2
20260507123101 49 105 0.0 0.0 0.00 0.00 0.00 83 3409.5
20260507122556 48 136 0.0 0.0 0.00 0.00 0.00 83 3409.3
20260507122052 48 125 0.0 0.0 0.00 0.00 0.00 86 3409.3
20260507121548 47 130 1.0 2.0 0.00 0.00 0.00 88 3409.1
20260507121044 47 98 0.0 0.0 0.00 0.00 0.00 91 3409.0
20260507120540 46 101 0.0 0.0 0.00 0.00 0.00 94 3409.2
20260507120038 46 132 0.0 2.0 0.00 0.00 0.00 96 3409.0
20260507115534 45 121 0.0 0.0 0.00 0.00 0.00 98 3409.2
20260507115029 45 121 0.0 0.0 0.00 0.00 0.00 98 3409.1
20260507114526 45 121 0.0 0.0 0.00 0.00 0.00 98 3409.3
20260507114023 45 121 0.0 0.0 0.00 0.00 0.00 99 3409.3
20260507113520 45 121 0.0 0.0 0.00 0.00 0.00 99 3409.1
20260507113017 45 121 0.0 0.0 0.00 0.00 0.00 99 3408.9
20260507112515 45 121 0.0 0.0 0.00 0.00 0.00 99 3409.1
20260507112012 45 121 0.0 0.0 0.00 0.00 0.00 99 3409.1
20260507111510 45 124 0.0 0.0 0.00 0.00 0.00 99 3409.2
20260507111005 45 124 0.0 0.0 0.00 0.00 0.00 99 3409.1
20260507110502 45 124 0.0 0.0 0.00 0.00 0.00 99 3408.9
20260507105958 45 124 0.0 0.0 0.00 0.00 0.00 99 3409.2
20260507105455 45 124 0.0 0.0 0.00 0.00 0.00 99 3408.9
20260507104951 45 124 0.0 0.0 0.00 0.00 0.00 99 3409.0
20260507104449 45 124 0.0 0.0 0.00 0.00 0.00 99 3409.1
20260507103944 46 124 0.0 0.0 0.00 0.00 0.00 99 3408.8
20260507103441 46 124 0.0 0.0 0.00 0.00 0.00 99 3409.0
20260507102937 46 118 0.0 0.0 0.00 0.00 0.00 99 3408.8
20260507102434 46 142 0.0 0.0 0.00 0.00 0.00 99 3408.9
20260507101931 46 135 0.0 0.0 0.00 0.00 0.00 99 3408.9
20260507101426 46 238 0.0 0.0 0.00 0.00 0.00 99 3408.7
20260507100923 46 44 1.0 2.0 0.00 0.00 0.00 99 3408.7
20260507100420 46 40 0.0 0.0 0.00 0.00 0.00 99 3408.7
20260507095918 46 47 0.0 0.0 0.00 0.00 0.00 99 3408.4
20260507095415 46 50 0.0 0.0 0.00 0.00 0.00 99 3408.5
20260507094912 46 4 2.0 2.0 0.00 0.00 0.00 99 3408.4
20260507094408 46 30 0.0 0.0 0.00 0.00 0.00 99 3408.3
20260507093905 47 41 0.0 0.0 0.00 0.00 0.00 99 3408.2
20260507093403 47 41 0.0 0.0 0.00 0.00 0.00 99 3408.3
20260507092902 47 48 0.0 0.0 0.00 0.00 0.00 99 3408.1
20260507092357 47 16 0.0 0.0 0.00 0.00 0.00 99 3408.4
20260507091854 47 349 0.0 2.0 0.00 0.00 0.00 99 3408.2
20260507091350 46 346 0.0 0.0 0.00 0.00 0.00 99 3408.2
20260507090846 46 346 0.0 0.0 0.00 0.00 0.00 99 3408.1
20260507090343 47 346 0.0 0.0 0.00 0.00 0.00 99 3408.1
20260507085840 47 346 0.0 0.0 0.00 0.00 0.00 99 3408.1
20260507085337 47 346 0.0 0.0 0.00 0.00 0.00 99 3408.1
20260507084834 47 346 0.0 0.0 0.00 0.00 0.00 99 3408.0
20260507084330 47 346 0.0 0.0 0.00 0.00 0.00 99 3408.1
20260507083828 47 346 0.0 0.0 0.00 0.00 0.00 99 3408.0
20260507083324 47 346 0.0 0.0 0.00 0.00 0.00 99 3407.8
20260507082820 47 346 0.0 0.0 0.00 0.00 0.00 99 3407.9
20260507082316 47 346 0.0 0.0 0.00 0.00 0.00 99 3407.9
20260507081814 47 346 0.0 0.0 0.00 0.00 0.00 99 3407.9
20260507081309 47 346 0.0 0.0 0.00 0.00 0.00 99 3407.9
20260507080806 47 346 0.0 0.0 0.00 0.00 0.00 99 3408.1
20260507080302 48 346 0.0 0.0 0.00 0.00 0.00 99 3408.0
20260507075757 48 346 0.0 0.0 0.00 0.00 0.00 98 3408.0
20260507075254 48 346 0.0 0.0 0.00 0.00 0.00 98 3408.2
20260507074750 48 346 0.0 0.0 0.00 0.00 0.00 98 3408.0
20260507074249 48 346 0.0 0.0 0.00 0.00 0.00 98 3408.0
20260507073745 48 346 0.0 0.0 0.00 0.00 0.00 98 3407.9
20260507073242 48 346 0.0 0.0 0.00 0.00 0.00 98 3408.1
20260507072740 48 346 0.0 0.0 0.00 0.00 0.00 98 3408.0
20260507072237 48 346 0.0 0.0 0.00 0.00 0.00 98 3408.1
20260507071734 48 346 0.0 0.0 0.00 0.00 0.00 98 3407.9
20260507071230 48 346 0.0 0.0 0.00 0.00 0.00 98 3408.1
20260507070727 48 346 0.0 0.0 0.00 0.00 0.00 97 3408.1
20260507070224 48 346 0.0 0.0 0.00 0.00 0.00 97 3407.8
20260507065721 48 346 0.0 0.0 0.00 0.00 0.00 97 3407.9
20260507065218 48 346 0.0 0.0 0.00 0.00 0.00 97 3408.0
20260507064715 48 346 0.0 0.0 0.00 0.00 0.00 97 3407.9
20260507064214 49 346 0.0 0.0 0.00 0.00 0.00 97 3407.9
20260507063711 49 346 0.0 0.0 0.00 0.00 0.00 97 3407.9
20260507063207 49 346 0.0 0.0 0.00 0.00 0.00 97 3407.9
20260507062704 49 346 0.0 0.0 0.00 0.00 0.00 97 3408.0
20260507062202 49 346 0.0 0.0 0.00 0.00 0.00 97 3408.1
20260507061659 49 346 0.0 0.0 0.00 0.00 0.00 96 3408.0
20260507061157 50 346 0.0 0.0 0.00 0.00 0.00 96 3408.0
20260507060655 50 346 0.0 0.0 0.00 0.00 0.00 96 3408.2
20260507060151 50 346 0.0 0.0 0.00 0.00 0.00 96 3408.0
20260507055647 50 346 0.0 0.0 0.00 0.00 0.00 96 3407.7
20260507055143 50 346 0.0 0.0 0.00 0.00 0.00 95 3407.7
20260507054639 50 346 0.0 0.0 0.00 0.00 0.00 95 3408.0
20260507054136 51 346 0.0 0.0 0.00 0.00 0.00 95 3408.1
20260507053634 51 346 0.0 0.0 0.00 0.00 0.00 95 3408.2
20260507053132 51 346 0.0 0.0 0.00 0.00 0.00 95 3408.4
20260507052630 51 346 0.0 0.0 0.00 0.00 0.00 95 3408.5
20260507052126 51 346 0.0 0.0 0.00 0.00 0.00 95 3408.3
20260507051624 51 346 0.0 0.0 0.00 0.00 0.00 95 3408.2
20260507051121 51 346 0.0 0.0 0.00 0.00 0.00 94 3408.3
20260507050618 51 346 0.0 0.0 0.00 0.00 0.00 94 3408.2
20260507050114 51 346 0.0 0.0 0.00 0.00 0.00 94 3408.4
20260507045611 51 346 0.0 0.0 0.00 0.39 0.39 94 3408.3
20260507045108 51 346 0.0 0.0 0.00 0.39 0.39 94 3408.3
20260507044604 51 346 0.0 0.0 0.00 0.39 0.39 94 3408.3
20260507044102 51 346 0.0 0.0 0.00 0.39 0.39 94 3408.4
20260507043557 51 346 0.0 0.0 0.00 0.39 0.39 94 3408.4
20260507043055 51 346 0.0 0.0 0.00 0.39 0.39 95 3408.4
20260507042550 51 346 0.0 0.0 0.00 0.39 0.39 95 3408.1
20260507042046 51 346 0.0 0.0 0.00 0.39 0.39 95 3408.5
20260507041543 51 346 0.0 0.0 0.00 0.39 0.39 96 3408.4
20260507041040 51 346 0.0 0.0 0.00 0.39 0.39 96 3407.9
20260507040537 51 346 0.0 0.0 0.00 0.39 0.39 95 3407.8
20260507040033 51 346 0.0 0.0 0.00 0.39 0.39 95 3407.7
20260507035529 51 346 0.0 0.0 0.00 0.39 0.39 95 3407.4
20260507035026 51 346 0.0 0.0 0.00 0.39 0.39 95 3407.6
20260507034522 51 346 0.0 0.0 0.00 0.39 0.39 95 3407.6
20260507034020 51 346 0.0 0.0 0.00 0.39 0.39 95 3407.6
20260507033518 51 346 0.0 0.0 0.00 0.39 0.39 95 3407.5
20260507033015 51 346 0.0 0.0 0.00 0.39 0.39 94 3407.8
20260507032512 51 346 0.0 0.0 0.00 0.39 0.39 94 3407.8
20260507032008 51 346 0.0 0.0 0.00 0.39 0.39 94 3407.9
20260507031504 51 346 0.0 0.0 0.00 0.39 0.39 94 3408.2
20260507031002 51 346 0.0 0.0 0.00 0.39 0.39 94 3408.2
20260507030459 51 346 0.0 0.0 0.00 0.39 0.39 93 3408.3
20260507025956 51 346 0.0 0.0 0.00 0.39 0.39 93 3408.4
20260507025453 51 346 0.0 0.0 0.00 0.39 0.39 93 3408.4
20260507024951 51 346 0.0 0.0 0.00 0.39 0.39 92 3408.2
20260507024448 51 346 0.0 0.0 0.00 0.39 0.39 92 3408.4
20260507023944 51 346 0.0 0.0 0.00 0.39 0.39 91 3408.4
20260507023440 52 346 0.0 0.0 0.00 0.39 0.39 91 3408.6
20260507022938 52 346 0.0 0.0 0.00 0.39 0.39 90 3408.3
20260507022435 52 346 0.0 0.0 0.00 0.39 0.39 90 3408.5